map of LAL home
LAL - Airport
Location
City:  Lakeland, Florida, United States
Name:Lakeland Linder Regional
ICAO:KLAL
IATA:LAL
FAA LID:LAL

Details
Type:Airport (Part 139 Class I)
Use:Public/Civil
Latitude:2759'20"N (27.988917)
Longitude:8201'07"W (-82.018555)
Datum:WGS 1984
Elevation:142 ft (43 m)
Variation:5.95W (WMM2015 magnetic declination)
-0.10 annual change
Runways:3
Longest:8499 × 150 ft (2590 × 45.5 m), paved

Time
Time Zone:UTC-5 (DST-4)
Local Time:

Weather
METAR:KLAL 220435Z AUTO 15005KT 10SM CLR 25/23 A3011 RMK AO2
TAF:KLAL 220526Z 2206/2306 VRB03KT P6SM SCT025 BKN250
FM221500 25006KT P6SM FEW040 SCT250
FM230200 VRB03KT P6SM SCT250
AMD NOT SKED TIL 221100

Related Locations
Nearby:
Farthest:USL: 11488 mi / 18489 km
Useless Loop, WA, AU

Find:

   beyond  
but within

Other Information
Maps:
NOTAMs:
Links:
Sources:

  
  • flag of United States
  • flag of Florida
  

Airport Diagram

Airport diagram for LAL

Airport diagram PDF

Sectional Chart

Flight Planning
at skyvector.com

Satellite Image

Google Maps Satellite view

 

Copyright © 2004-2018 Karl L. Swartz. All rights reserved.
The Great Circle Mapper name and logo are trademarks of the Great Circle Mapper.
All other trademarks mentioned herein belong to their respective owners.
Please see credits for attibutions and further copyright information.

  Follow gcmap on Facebook Follow gcmap on Twitter Follow gcmap on Google+ GCmap on LinkedIn

hCard Microformat

Geo Microformat